Wind_Speed
9 10 10 11 11 11 11 12 11 11 12 12 12 13 13 13 13 13 14 14 13 13 14 14 14 15 15 16 16 16 15 16 16 17 18 18 19 19
10 11 12 12 12 12 12 12 12 13 13 13 14 15 15 15 16 16 16 16 16 16 16 16 17 17 17 18 18 18 18 18 17 18 19 20 20 20
11 12 12 13 13 13 13 14 14 15 15 15 16 17 17 17 17 18 18 17 18 19 19 19 19 19 19 19 19 20 20 20 20 20 20 21 21 22
13 14 14 14 14 15 15 16 16 17 17 17 18 19 19 19 19 19 20 20 20 20 20 21 21 21 21 21 21 21 21 21 22 22 21 22 23 24
15 15 16 16 15 16 17 18 18 19 19 19 20 20 21 21 21 21 21 22 22 23 22 23 23 23 23 23 23 23 22 22 22 23 24 24 24 24
17 18 18 18 18 18 19 19 20 21 21 21 21 22 22 23 24 24 24 23 24 24 25 25 25 25 25 24 24 24 24 23 23 23 23 24 25 25
20 20 20 20 20 21 21 21 22 22 23 23 23 24 25 25 26 26 26 26 26 26 27 27 27 27 27 26 26 25 25 25 25 25 25 25 26 27
21 22 23 23 23 22 23 23 24 24 25 25 25 26 27 27 27 28 28 29 28 29 30 30 29 29 29 29 29 28 27 27 27 27 27 28 28 28
23 24 24 24 24 24 25 25 25 26 26 27 28 28 28 29 30 30 31 31 31 31 31 31 31 31 31 31 31 30 30 29 29 29 30 30 30 30
25 25 25 25 26 26 26 26 27 28 29 30 30 30 30 31 32 32 32 32 32 33 33 33 33 33 33 33 33 33 32 32 32 31 31 32 32 32
27 27 28 27 27 28 28 29 29 30 31 32 32 32 33 34 34 34 34 33 33 34 34 35 34 34 34 34 34 35 35 34 34 34 34 33 33 33
29 30 30 30 30 30 31 31 31 32 33 34 34 34 34 35 35 35 35 36 36 35 35 35 35 35 35 34 34 35 35 35 35 35 35 34 34 33
31 32 32 32 32 32 33 33 34 34 35 36 36 36 36 36 36 37 37 37 37 36 35 35 35 35 35 34 35 35 35 35 35 35 35 35 34 34
32 33 33 33 33 33 34 35 36 36 37 38 37 37 37 37 37 37 38 38 38 37 36 35 35 36 36 35 35 36 36 36 35 35 35 35 35 35
33 34 34 35 35 35 36 36 37 37 38 38 39 38 38 39 38 38 39 39 38 38 37 37 36 36 36 35 35 35 35 35 35 35 35 35 35 35
34 35 35 36 36 36 37 38 38 38 38 39 40 40 40 40 39 39 39 38 38 38 38 37 36 36 36 35 35 35 35 35 35 35 35 35 34 34
35 35 35 37 37 37 37 37 38 38 39 40 40 40 41 41 40 40 39 38 38 38 37 37 37 37 36 36 35 35 35 35 35 35 34 34 34 34
36 36 36 36 36 36 37 38 39 40 41 41 42 42 42 41 40 40 39 39 39 38 38 37 37 37 37 37 38 37 36 35 35 34 34 33 32 32
36 37 36 36 37 38 39 39 40 41 41 42 42 42 42 41 40 40 39 39 39 39 38 38 38 38 39 39 38 38 36 35 34 33 33 32 31 31
37 37 37 37 38 39 40 41 42 42 43 43 42 41 41 40 39 38 39 39 39 39 39 39 39 40 39 39 38 36 35 35 34 33 32 31 31 31
38 38 38 38 39 40 41 42 42 42 42 41 40 40 39 38 38 39 39 40 39 39 39 40 39 39 38 38 37 35 34 34 34 34 32 31 30 29
37 38 38 39 40 40 41 41 41 41 40 39 38 37 38 38 38 39 39 38 38 37 38 38 38 38 37 37 35 34 33 34 33 32 31 30 29 29
39 39 40 40 40 41 41 40 40 39 39 38 37 37 37 38 38 38 38 37 37 37 37 38 38 37 36 35 34 33 33 32 32 31 30 30 29 29
Wind_Direction
318 322 324 324 324 327 329 329 329 328 325 322 323 324 325 324 320 318 317 317 313 310 308 306 307 300 297 295 292 288 286 286 281 275 270 268 267 265
309 314 317 317 316 319 321 321 321 321 321 320 319 319 319 319 319 315 313 311 309 308 306 303 303 303 299 298 294 289 285 283 280 277 272 269 268 266
305 307 309 312 312 315 317 317 317 317 315 314 311 313 314 314 314 314 311 308 307 306 304 304 302 302 300 300 296 292 288 284 280 278 275 271 269 267
304 304 304 306 307 310 312 313 313 312 312 309 308 309 309 310 308 307 308 308 307 306 304 302 301 299 298 298 297 292 289 287 284 280 278 274 272 269
299 300 301 303 304 305 308 310 311 311 309 308 307 307 307 306 305 304 304 304 304 304 303 302 301 299 298 297 295 293 289 287 285 280 277 275 273 271
298 297 298 300 300 301 304 306 308 309 308 307 307 306 305 304 303 302 301 300 300 300 299 299 300 299 299 298 295 292 289 287 285 282 279 277 276 275
296 297 296 297 297 298 300 301 303 305 306 306 305 305 304 304 302 300 299 299 299 299 297 296 295 295 295 295 294 293 290 287 284 281 279 278 277 276
294 295 296 295 296 297 298 299 300 301 303 305 305 304 304 303 302 301 299 298 298 297 296 294 293 293 292 292 291 290 289 288 284 281 279 278 277 276
294 295 297 296 295 294 294 295 297 298 300 302 303 302 303 302 300 299 298 297 297 296 295 294 293 292 290 290 289 288 287 286 285 282 279 279 278 277
292 292 294 294 293 294 295 297 299 299 300 302 302 301 301 301 299 298 298 298 297 296 295 294 292 291 289 288 287 286 285 284 283 282 281 280 279 278
291 290 290 293 293 293 294 295 297 298 299 300 301 301 301 300 299 298 298 299 298 297 296 294 292 290 287 285 284 284 283 283 282 280 280 280 279 277
291 291 291 292 291 292 293 293 294 295 296 297 298 299 299 300 299 299 298 298 298 297 296 295 294 291 289 286 284 283 282 282 282 281 280 280 279 277
291 291 291 292 291 291 293 293 293 294 294 295 296 297 297 297 297 298 298 298 298 298 297 295 295 293 291 287 285 283 282 281 281 281 280 279 280 278
290 290 290 290 290 291 293 294 293 293 294 295 295 296 296 296 298 298 297 297 297 297 296 295 295 295 292 290 287 285 284 284 282 281 281 279 278 277
292 292 290 290 290 290 291 293 293 293 294 294 295 294 295 296 296 296 297 297 296 296 296 294 293 293 292 291 290 288 285 283 284 282 281 280 279 276
292 291 290 290 292 292 292 292 293 293 293 294 295 294 294 294 294 295 295 296 296 297 297 296 293 292 291 291 291 290 288 286 285 283 281 280 278 275
292 291 292 293 293 293 293 293 294 294 294 295 296 295 294 293 293 294 295 295 296 296 296 295 294 293 292 291 291 292 289 286 285 284 282 280 279 276
291 292 293 294 292 292 293 294 294 294 295 296 296 295 295 294 293 293 293 294 295 295 294 294 293 293 292 291 291 290 289 287 286 284 282 281 278 276
291 292 293 293 293 295 296 296 296 295 295 294 295 295 294 293 292 292 293 294 294 294 293 292 293 292 292 291 290 289 287 285 283 283 282 280 277 274
292 293 294 294 295 296 296 296 296 296 296 294 293 293 293 293 292 292 292 293 293 293 292 292 292 293 293 291 289 286 284 283 281 281 281 280 277 274
293 294 294 294 294 294 294 295 296 296 296 295 293 293 293 292 292 293 292 292 291 290 290 291 291 292 292 292 290 287 285 283 281 279 279 278 276 274
295 295 295 296 295 295 295 295 296 296 295 295 294 294 293 293 293 292 292 292 290 290 290 290 291 291 290 290 290 288 286 284 281 278 277 276 274 273
295 296 296 296 296 296 295 295 295 295 295 294 294 294 294 293 293 293 294 293 293 292 292 291 291 291 290 290 289 286 284 283 280 276 275 274 273 272
Height
5891 5890 5888 5887 5885 5883 5881 5879 5878 5876 5874 5871 5869 5867 5864 5862 5859 5856 5854 5852 5849 5847 5845 5843 5841 5839 5836 5834 5832 5831 5829 5828 5827 5826 5826 5825 5825 5825
5889 5887 5886 5884 5882 5880 5878 5876 5874 5873 5870 5868 5866 5864 5861 5858 5856 5853 5851 5848 5846 5844 5841 5839 5837 5834 5832 5830 5828 5826 5825 5823 5822 5821 5820 5820 5819 5819
5886 5884 5882 5880 5878 5876 5875 5873 5871 5869 5867 5865 5862 5860 5857 5855 5852 5849 5847 5844 5842 5840 5837 5835 5832 5830 5827 5825 5823 5821 5820 5818 5816 5815 5814 5813 5813 5812
5883 5881 5879 5877 5875 5873 5871 5869 5867 5865 5863 5861 5858 5856 5853 5851 5848 5845 5843 5840 5837 5835 5832 5830 5827 5825 5822 5820 5818 5816 5814 5812 5811 5809 5808 5807 5806 5805
5879 5877 5875 5873 5871 5869 5866 5864 5862 5860 5858 5856 5854 5851 5848 5846 5843 5840 5838 5835 5832 5830 5827 5824 5821 5819 5817 5814 5812 5809 5808 5806 5804 5803 5801 5800 5799 5798
5874 5872 5870 5869 5866 5864 5862 5860 5857 5855 5852 5850 5848 5845 5843 5840 5837 5835 5832 5829 5827 5824 5821 5818 5815 5813 5810 5808 5805 5803 5801 5799 5797 5796 5794 5793 5792 5791
5869 5867 5865 5863 5861 5859 5857 5854 5852 5849 5847 5844 5842 5839 5836 5834 5831 5828 5825 5823 5820 5817 5814 5812 5809 5806 5803 5801 5798 5796 5794 5792 5790 5788 5787 5786 5785 5783
5863 5862 5860 5857 5855 5853 5851 5848 5846 5843 5841 5838 5835 5832 5830 5826 5823 5820 5818 5815 5813 5810 5806 5804 5801 5798 5795 5793 5791 5788 5786 5784 5782 5780 5779 5777 5776 5775
5857 5855 5853 5851 5849 5847 5844 5841 5838 5836 5833 5831 5828 5825 5822 5819 5816 5813 5810 5807 5804 5801 5798 5795 5792 5790 5787 5784 5782 5780 5777 5775 5773 5771 5770 5768 5767 5765
5851 5848 5846 5844 5842 5839 5837 5834 5831 5828 5825 5823 5820 5817 5814 5810 5807 5804 5801 5798 5795 5792 5788 5786 5783 5781 5778 5775 5772 5770 5768 5766 5764 5762 5760 5758 5757 5755
5843 5841 5839 5837 5834 5832 5829 5826 5824 5821 5817 5814 5811 5808 5805 5801 5798 5795 5791 5788 5785 5782 5778 5775 5773 5770 5767 5765 5762 5759 5757 5755 5753 5751 5750 5748 5746 5745
5835 5833 5831 5829 5826 5823 5820 5817 5815 5812 5809 5805 5802 5799 5796 5792 5789 5785 5781 5778 5775 5772 5769 5765 5762 5759 5757 5754 5751 5749 5746 5744 5742 5740 5739 5737 5735 5734
5827 5825 5822 5820 5817 5814 5811 5808 5806 5803 5799 5796 5792 5789 5786 5782 5779 5775 5771 5768 5764 5761 5758 5754 5751 5747 5745 5743 5740 5738 5735 5733 5731 5729 5727 5726 5724 5723
5817 5815 5813 5810 5807 5804 5801 5798 5795 5792 5789 5786 5782 5779 5776 5772 5768 5764 5761 5757 5753 5750 5746 5743 5740 5737 5734 5732 5729 5727 5724 5722 5719 5718 5716 5714 5713 5711
5808 5805 5802 5799 5797 5794 5791 5788 5784 5781 5778 5775 5772 5768 5765 5761 5757 5754 5750 5746 5742 5738 5735 5732 5729 5726 5723 5720 5718 5715 5713 5711 5708 5706 5704 5702 5701 5699
5798 5795 5792 5789 5786 5783 5780 5777 5773 5770 5767 5764 5760 5757 5753 5749 5746 5742 5739 5735 5731 5728 5724 5720 5717 5714 5711 5709 5706 5704 5702 5699 5697 5695 5693 5691 5689 5688
5787 5785 5782 5778 5775 5772 5769 5766 5762 5759 5755 5752 5748 5745 5741 5737 5734 5730 5727 5724 5720 5717 5713 5709 5706 5703 5700 5698 5695 5693 5690 5688 5686 5683 5681 5680 5678 5677
5778 5775 5772 5768 5764 5761 5758 5755 5751 5747 5743 5739 5736 5732 5729 5725 5722 5718 5715 5711 5708 5705 5702 5698 5695 5692 5689 5687 5684 5681 5679 5676 5674 5672 5670 5669 5668 5666
5767 5764 5761 5758 5754 5750 5747 5743 5739 5735 5731 5727 5723 5719 5716 5712 5709 5706 5702 5699 5696 5693 5690 5687 5683 5680 5678 5675 5673 5670 5667 5665 5662 5661 5659 5658 5657 5656
5756 5753 5749 5746 5742 5739 5735 5731 5727 5723 5718 5714 5710 5706 5703 5699 5696 5693 5690 5687 5684 5681 5678 5675 5672 5668 5666 5663 5660 5658 5655 5653 5651 5650 5649 5647 5646 5646
5745 5741 5738 5734 5731 5727 5723 5719 5714 5710 5706 5702 5698 5695 5691 5688 5685 5682 5678 5675 5672 5669 5666 5663 5660 5657 5653 5650 5648 5646 5643 5641 5640 5639 5638 5637 5636 5636
5734 5730 5726 5722 5718 5714 5710 5706 5702 5698 5694 5690 5686 5683 5679 5676 5673 5670 5667 5663 5660 5657 5654 5651 5648 5645 5642 5639 5637 5634 5632 5631 5629 5627 5626 5626 5626 5626
5722 5718 5714 5710 5706 5701 5698 5694 5690 5686 5682 5678 5674 5671 5668 5665 5661 5658 5655 5651 5648 5645 5642 5639 5636 5633 5630 5628 5626 5623 5621 5620 5618 5617 5616 5616 5616 5616